Regional Weather Roundup
Issued by NWS Cleveland, OH

Home | Current Version | Previous Version | Graphics & Text | Print | Product List | Glossary On
Versions: 1 2 3 4 5 6 7 8 9 10 11 12 13 14 15 16 17 18 19 20 21 22 23 24 25 26 27 28 29 30 31 32 33 34 35 36 37 38 39 40 41 42 43 44 45 46 47 48 49 50
000
ASUS41 KCLE 192200
RWRCLE
OHIO REGIONAL WEATHER ROUNDUP
NATIONAL WEATHER SERVICE WILMINGTON, OH
500 PM EST FRI JAN 19 2018

NOTE: "FAIR" INDICATES FEW OR NO CLOUDS BELOW 12,000 FEET WITH NO
SIGNIFICANT WEATHER AND/OR OBSTRUCTIONS TO VISIBILITY.

OHZ001>008-015>018-024>027-034-035-043-044-192300-
   NORTHWEST OHIO

CITY           SKY/WX    TMP DP  RH WIND       PRES   REMARKS
DEFIANCE       FAIR      34  22  61 SW16G22   29.90S WCI  24
FINDLAY        FAIR      34  22  61 S18       29.91F WCI  23
TOLEDO EXPRESS FAIR      34  23  64 SW15G23   29.88F WCI  24
TOLEDO EXEC    FAIR      34  23  64 SW16      29.90F WCI  24
LIMA           FAIR      34  22  61 S15       29.93S WCI  24
$$

OHZ009>014-019>023-028>033-038-089-192300-
   NORTHEAST OHIO

CITY           SKY/WX    TMP DP  RH WIND       PRES   REMARKS
CLE-HOPKINS    FAIR      38  20  48 S15G23    29.94R
CLE-LAKEFRONT  FAIR      38  19  46 S18       29.91S
CUY CO. ARPT   MOCLDY    41  18  38 S16G25    29.92R
LORAIN-ELYRIA  FAIR      38  17  42 S14G25    29.91F
ASHTABULA      FAIR      35  17  47 S15       29.92R WCI  25
AKRON-CANTON   FAIR      35  18  49 SW20      29.97R WCI  24
WOOSTER        FAIR      35  18  49 SW17      29.97R WCI  25
MANSFIELD      FAIR      35  19  52 S22       29.94S WCI  23
YOUNGSTOWN     FAIR      36  18  48 SW14      29.95R
$$

OHZ042-051>053-060>062-070>072-077>081-192300-
  SOUTHWEST OHIO

CITY           SKY/WX    TMP DP  RH WIND       PRES   REMARKS
CINC-COVINGTON MOCLDY    38  20  48 S16       30.05S
CINC-LUNKEN    FAIR      40  21  46 SW14G24   30.08S
HAMILTON       FAIR      40  20  44 S9        30.06S
DAYTON         MOCLDY    37  21  52 S15G23    30.00F
WRIGHT-PAT AFB FAIR      37   9  31 S17       30.01S
DAYTON GENERAL FAIR      39  18  42 SW14G22   30.02S
WILMINGTON     FAIR      34  20  56 S12       30.03R WCI  25
$$

OHZ036-037-039>041-045>050-054>059-063>069-073>076-082>088-192300-
  CENTRAL AND SOUTHEAST OHIO

CITY           SKY/WX    TMP DP  RH WIND       PRES   REMARKS
COLUMBUS       FAIR      37  19  48 S13G20    30.04S
OSU AIRPORT    FAIR      35  20  54 S15       30.02S WCI  25
BOLTON FIELD   CLEAR     36  19  51 S13G20    30.04S
RICKENBACK AFB NOT AVBL
NEWARK         FAIR      37  18  46 S9        30.03R
MARION         FAIR      30  19  63 S20       29.98S WCI  17
LANCASTER      FAIR      37  19  48 S9        30.05S
ZANESVILLE     FAIR      40  17  39 SW8       30.05R
NEW PHILLY     FAIR      39  17  41 S9        30.02R
$$




USA.gov is the U.S. government's official web portal to all federal, state and local government web resources and services.